SCVMSCEL

Guest
Details From SCVM - Vina Del Mar
To SCEL - Arturo Merino Benitez Intl
Flight Number -
Tags Generated
Created
Modified
Stats Distance 43 nm / 80 km
Max Altitude 0 ft / 0 m
Waypoints 2
Social Downloads 3
Likes 0
Share VATSIM

Download

Looking for another format? Having issues loading an existing format? Contact us
Advertisement - Login to hide

Notes

Generated

Route

SCVM SCEL

ID Type Via Altitude Latitude Longitude Leg Dist Tot Dist Heading (true) Name
O SCVM APT - 0 ft / 0 m -32.95445˚ -71.48601˚ - 0 nm - -
O SCEL APT - 0 ft / 0 m -33.37608˚ -70.78671˚ 43 nm 43 nm 126° / 126° -

Altitude Profile

Advertisement - Login to hide

SCVM

Details ICAO SCVM
Name Vina Del Mar
Region Chile
Timezone America/Santiago (UTC-4.0)
Stats Elevation 461 ft / 141 m (AMSL)
Location -32.949611° -71.478583°
Runways 1
Magnetic Variation 2.117° E

METAR

SCVM 250500Z 12004KT CAVOK 07/05 Q1016

Decode

TAF

Not found

Departure Runways

ID Width Length Bearing (true) Bearing (mag) Surface Threshold Offset Overrun Length
05 98 ft / 30 m 5,759 ft / 1,755 m 52.21° 50.09° Asphalt 0 ft / 0 m 85 ft / 26 m
23 98 ft / 30 m 5,759 ft / 1,755 m 232.20° 230.08° Asphalt 0 ft / 0 m 85 ft / 26 m

SCEL

Details ICAO SCEL (SCL)
Name Arturo Merino Benitez Intl
Region Chile
Timezone America/Santiago (UTC-4.0)
Stats Elevation 1,550 ft / 472 m (AMSL)
Location -33.389775° -70.794366°
Runways 2
Magnetic Variation 1.733° E

METAR

SCEL 250500Z VRB02KT 8000 NSC 08/M02 Q1017 NOSIG

Decode

TAF

TAF SCEL 242239Z 2500/2600 18004KT CAVOK TX24/2519Z TN04/2511Z BECMG 2502/2504 VRB02KT BECMG 2504/2506 8000 NSC TEMPO 2507/2513 5000 HZ BECMG 2516/2518 16004KT BECMG 2517/2519 18008KT CAVOK

Decode

Destination Runways

ID Width Length Bearing (true) Bearing (mag) Surface Threshold Offset Overrun Length
17L 180 ft / 55 m 10,523 ft / 3,207 m 177.43° 175.70° Asphalt 0 ft / 0 m 0 ft / 0 m
17R 148 ft / 45 m 12,504 ft / 3,811 m 177.44° 175.71° Asphalt 0 ft / 0 m 0 ft / 0 m
35L 148 ft / 45 m 12,504 ft / 3,811 m 357.44° 355.71° Asphalt 0 ft / 0 m 0 ft / 0 m
35R 180 ft / 55 m 10,523 ft / 3,207 m 357.43° 355.70° Asphalt 1,800 ft / 549 m 0 ft / 0 m

Approach Navaids

Runway Type Ident Frequency Range Bearing (true) Bearing (mag) Slope Elevation
17L Localiser IUEL 110.30 MHz 18 nm / 33 km 173.64° 171.90° - 1,555 ft / 474 m (AMSL)
17L Glidescope IUEL 110.30 MHz 10 nm / 19 km 174.00° 172.27° 3.00° 1,555 ft / 474 m (AMSL)
17L DME IUEL 110.30 MHz 18 nm / 33 km - - - 1,557 ft / 475 m (AMSL)
17R Localiser IMER 111.10 MHz 18 nm / 33 km 174.24° 172.50° - 1,555 ft / 474 m (AMSL)
17R Glidescope IMER 111.10 MHz 10 nm / 19 km 174.00° 172.27° 3.00° 1,555 ft / 474 m (AMSL)
17R DME IMER 111.10 MHz 18 nm / 33 km - - - 1,555 ft / 474 m (AMSL)

Popular Alternatives